[[{"header":{"parameterUnit":"m.s-1","parameterCategory":1,"la1":30.2991,"la2":30.254,"lo1":-89.0895,"lo2":-89.0444,"dy":0.0017,"dx":0.0017,"nx":28,"ny":28,"refTime":"2026-03-05T03:00:00:Z","depth":0,"parameterNumber":2,"parameterNumberName":"U-component_of_WINDS"},"data":[0,0,0,0,0,0,0,0,0,0,0,0,0,0,0,0,0,0,0,0,0,0,0,0,0,0,0,0,0,0,0,0,0,0,0,0,0,0,0,0,0,0,0,0,0,0,0,0,0,0,0,0,0,0,0,0,0,0,-3.9117,-3.9118,0,-3.9189,-3.919,-3.919,-3.9151,-3.9149,-3.9147,-3.9145,-3.9219,-3.9223,-3.9227,0,0,0,0,0,0,0,0,0,0,0,0,0,-3.8949,-3.8952,-3.9117,-3.9118,-3.9119,-3.9189,-3.919,-3.9191,-3.9151,-3.9149,-3.9146,-3.9144,-3.9218,-3.9222,-3.9227,0,0,0,0,0,0,0,0,0,0,0,0,0,-3.9021,-3.8953,-3.9117,-3.9108,-3.9108,-3.9188,-3.919,-3.9191,-3.9152,-3.9149,-3.9146,-3.9143,-3.9216,-3.9222,-3.9228,-3.9322,0,0,-3.9245,-3.9247,0,0,0,0,0,0,0,0,-3.9017,-3.9027,-3.9108,-3.9109,-3.9109,-3.9158,-3.9157,-3.9235,-3.9153,-3.9135,-3.9145,-3.9142,-3.9201,-3.9208,-3.9228,-3.9325,-3.9328,-3.9246,-3.9249,-3.9251,-3.9253,0,0,0,0,0,0,0,-3.9012,-3.9024,-3.9145,-3.9109,-3.911,-3.9101,-3.9108,-3.9172,-3.9184,-3.9136,-3.9134,-3.9143,-3.9201,-3.9222,-3.9229,-3.933,-3.9245,-3.925,-3.9254,-3.9256,-3.951,-3.9513,0,0,0,0,0,0,-3.9008,-3.902,-3.9143,-3.9148,-3.9055,-3.9106,-3.9114,-3.9145,-3.9183,-3.9186,-3.9145,-3.9141,-3.9214,-3.9223,-3.9232,-3.9345,-3.9251,-3.9257,-3.926,-3.9506,-3.951,-3.9514,0,0,0,0,0,0,-3.9004,-3.9019,-3.914,-3.9083,-3.9098,-3.9112,-3.9147,-3.9148,-3.917,-3.919,-3.9192,-3.9165,-3.9212,-3.9224,-3.93,-3.9347,-3.9259,-3.9264,-3.9502,-3.9508,-3.9512,-3.9571,0,0,0,0,0,0,-3.8999,-3.9018,-3.9053,-3.9084,-3.9101,-3.9207,-3.915,-3.9152,-3.9179,-3.9174,-3.9209,-3.9212,-3.9211,-3.9292,-3.9306,-3.9353,-3.9269,-3.9498,-3.9505,-3.9511,-3.9565,-3.9578,-3.9588,0,0,0,0,0,-3.8994,-3.9067,-3.9055,-3.907,-3.9145,-3.9209,-3.9219,-3.9216,-3.9183,-3.9219,-3.9233,-3.921,-3.934,-3.93,-3.9315,-3.9365,-3.9495,-3.9503,-3.951,-3.956,-3.9575,-3.9588,0,0,0,0,0,0,-3.904,-3.907,-3.9058,-3.9143,-3.9174,-3.9202,-3.9247,-3.9232,-3.9273,-3.9266,-3.9262,-3.927,-3.935,-3.9365,-3.932,-3.9459,-3.9413,-3.9424,-3.9445,-3.946,-3.9471,-3.9465,-3.9274,0,0,0,0,0,-3.906,-3.9109,-3.9133,-3.9206,-3.9223,-3.9233,-3.926,-3.9256,-3.9288,-3.9301,-3.9319,-3.9351,-3.94,-3.9431,-3.9476,-3.9569,-3.9576,-3.9611,-3.9622,-3.9632,-3.964,-3.9691,-3.9707,-3.9538,-3.9538,-3.9538,0,0,-3.9102,-3.9125,-3.9156,-3.9216,-3.924,-3.9291,-3.9244,-3.93,-3.9338,-3.9309,-3.9382,-3.9398,-3.9433,-3.9518,-3.9556,-3.9534,-3.9689,-3.9641,-3.9649,-3.9652,-3.9701,-3.9716,-3.9731,-3.9543,-3.9543,-3.9542,0,0,-3.9204,-3.9227,-3.929,-3.9315,-3.9351,-3.9358,-3.9374,-3.9405,-3.9414,-3.9488,-3.9468,-3.9514,-3.9597,-3.9623,-3.9647,-3.9764,-3.9745,-3.9779,-3.9838,-3.9888,-3.9901,-3.9913,-3.9954,-3.9969,-3.9788,-3.9788,-3.9788,0,-3.9251,-3.9327,-3.9325,-3.9383,-3.941,-3.9388,-3.9453,-3.9477,-3.9527,-3.9547,-3.9521,-3.9625,-3.9648,-3.9739,-3.9767,-3.9788,-3.9806,-3.9773,-3.99,-3.9911,-3.9922,-3.9961,-3.9977,-3.9792,-3.9792,-3.9791,-3.9791,0,-3.9384,-3.9437,-3.9484,-3.9533,-3.9566,-3.9627,-3.9635,-3.9669,-3.9663,-3.9673,-3.9749,-3.9776,-3.9827,-3.9849,-3.9843,-3.994,-3.9925,-3.99,-3.9852,-3.9942,-3.9979,-3.9994,-3.9797,-3.9796,-3.9795,-3.9794,0,0,-3.9513,-3.9562,-3.9579,-3.9602,-3.9642,-3.9683,-3.9745,-3.9795,-3.9824,-3.986,-3.9911,-3.9984,-3.9961,-3.9989,-3.9987,-4.0031,-4.0121,-4.0001,-4.0001,-4.0021,-4.023,-4.0247,-4.0264,-4.0111,-4.0113,-4.0116,-4.0227,0,-3.9617,-3.9723,-3.9724,-3.9822,-3.9872,-3.9853,-3.9907,-3.9938,-3.995,-3.9995,-4.0008,-4.0059,-4.0026,-4.0043,-4.0086,-4.0101,-4.0163,-4.0094,-4.0158,-4.016,-4.0147,-4.0283,-4.0301,-4.0404,-4.0241,-4.0243,-4.0245,0,-3.9751,-3.9792,-3.9895,-3.993,-3.9951,-3.9999,-4.0046,-4.0089,-4.0124,-4.013,-4.0163,-4.0155,-4.0219,-4.0172,-4.026,-4.0213,-4.024,-4.0252,-4.0256,-4.026,-4.0206,-4.029,-4.0437,-4.0452,-4.0268,-4.0266,-4.0264,0,-3.9835,-3.9916,-3.9988,-4.0008,-4.005,-4.0085,-4.0104,-4.0137,-4.0168,-4.0209,-4.0229,-4.0278,-4.0305,-4.0343,-4.0349,-4.0314,-4.0438,-4.0391,-4.0444,-4.0444,-4.0468,-4.0466,-4.062,-4.049,-4.0489,-4.0489,-4.0489,0,-3.9949,-4.0013,-4.0026,-4.007,-4.0142,-4.0144,-4.0214,-4.0231,-4.0261,-4.0309,-4.0297,-4.0343,-4.0348,-4.0396,-4.0402,-4.0474,-4.0486,-4.0493,-4.0493,-4.0493,-4.0492,-4.0508,-4.0501,-4.0493,-4.0492,-4.0491,-4.0491,0,-4.0052,-4.0064,-4.0141,-4.0176,-4.0187,-4.0238,-4.0268,-4.0311,-4.0323,-4.0384,-4.0398,-4.0417,-4.0473,-4.0483,-4.0549,-4.0553,-4.0639,-4.0633,-4.0626,-4.0625,-4.0677,-4.0671,-4.0845,-4.0868,-4.0724,-4.0725,-4.0727,0,-4.0123,-4.0172,-4.0213,-4.0244,-4.0265,-4.0316,-4.0347,-4.0353,-4.0386,-4.0432,-4.047,-4.0524,-4.0568,-4.0658,-4.0678,-4.0728,-4.0722,-4.078,-4.073,-4.0728,-4.0722,-4.0718,-4.0723,-4.0789,-4.0791,-4.0792,-4.0793,0,-4.0248,-4.0252,-4.0298,-4.0347,-4.0385,-4.0424,-4.046,-4.0487,-4.0497,-4.0536,-4.0593,-4.0627,-4.0695,-4.0749,-4.08,-4.0821,-4.0809,-4.0809,-4.0824,-4.0823,-4.0816,-4.0819,-4.0651,-4.0804,-4.0803,-4.0802,-4.0802,-4.0801,-4.0337,-4.0379,-4.0415,-4.0467,-4.0496,-4.0531,-4.0573,-4.0591,-4.0639,-4.0694,-4.0695,-4.0757,-4.0794,-4.0862,-4.0886,-4.0936,-4.0917,-4.0939,-4.0944,-4.0949,-4.0953,-4.0811,-4.0945,-4.0945,-4.0945,-4.0944,-4.0944,0,-4.046,-4.0482,-4.0531,-4.0583,-4.0624,-4.0611,-4.0652,-4.0687,-4.0742,-4.0777,-4.0821,-4.0887,-4.0941,-4.0966,-4.102,-4.1054,-4.105,-4.1068,-4.1064,-4.1069,-4.0967,-4.0948,-4.107,-4.107,-4.107,-4.107,-4.107,-4.107,-4.0528,-4.06,-4.0609,-4.0695,-4.0718,-4.0778,-4.0803,-4.0836,-4.0864,-4.0938,-4.0983,-4.1,-4.1032,-4.1088,-4.1137,-4.1143,-4.1163,-4.1183,-4.1186,-4.1089,-4.1076,-4.1064,-4.1046,-4.1187,-4.1187,-4.1284,-4.1285,-4.1286]},{"header":{"parameterUnit":"m.s-1","parameterCategory":1,"la1":30.2991,"la2":30.254,"lo1":-89.0895,"lo2":-89.0444,"dy":0.0017,"dx":0.0017,"nx":28,"ny":28,"refTime":"2026-03-05T03:00:00:Z","depth":0,"parameterNumber":3,"parameterNumberName":"V-component_of_WINDS"},"data":[0,0,0,0,0,0,0,0,0,0,0,0,0,0,0,0,0,0,0,0,0,0,0,0,0,0,0,0,0,0,0,0,0,0,0,0,0,0,0,0,0,0,0,0,0,0,0,0,0,0,0,0,0,0,0,0,0,0,1.2225,1.2225,0,1.225,1.2251,1.2251,1.2273,1.2273,1.2274,1.2274,1.2298,1.2299,1.2299,0,0,0,0,0,0,0,0,0,0,0,0,0,1.2195,1.2195,1.2225,1.2225,1.2225,1.225,1.2251,1.2251,1.2273,1.2273,1.2274,1.2274,1.2298,1.2299,1.2299,0,0,0,0,0,0,0,0,0,0,0,0,0,1.2213,1.2195,1.2224,1.2239,1.2241,1.225,1.2251,1.2251,1.2273,1.2273,1.2274,1.2274,1.2298,1.2299,1.2299,1.2295,0,0,1.2301,1.2301,0,0,0,0,0,0,0,0,1.2212,1.2214,1.2237,1.2238,1.224,1.2259,1.2249,1.2266,1.2273,1.2261,1.2274,1.2274,1.2285,1.2286,1.229,1.2296,1.2297,1.2301,1.2301,1.2302,1.2302,0,0,0,0,0,0,0,1.221,1.2213,1.2235,1.2237,1.2239,1.2245,1.2248,1.2252,1.227,1.2262,1.2264,1.2266,1.2286,1.229,1.2291,1.2298,1.2301,1.2302,1.2302,1.2302,1.2305,1.2304,0,0,0,0,0,0,1.2207,1.2212,1.2234,1.2235,1.2227,1.2245,1.2248,1.2252,1.227,1.2273,1.2266,1.2267,1.2288,1.229,1.2292,1.229,1.2302,1.2302,1.2303,1.2305,1.2305,1.2304,0,0,0,0,0,0,1.2206,1.2209,1.2233,1.2224,1.2228,1.2245,1.225,1.2253,1.2257,1.2273,1.2277,1.2267,1.2289,1.2291,1.2295,1.2291,1.2303,1.2303,1.2305,1.2305,1.2305,1.2286,0,0,0,0,0,0,1.2205,1.2208,1.2207,1.2224,1.2228,1.2235,1.2249,1.2253,1.2258,1.226,1.2275,1.2278,1.2289,1.2294,1.2296,1.2292,1.2304,1.2306,1.2305,1.2305,1.2287,1.2285,1.2283,0,0,0,0,0,1.2204,1.2199,1.2206,1.2209,1.2226,1.2235,1.2237,1.2251,1.2258,1.2257,1.2268,1.2277,1.2292,1.2294,1.2296,1.2293,1.2306,1.2305,1.2305,1.2288,1.2285,1.2283,0,0,0,0,0,0,1.218,1.2202,1.221,1.221,1.2221,1.2239,1.2237,1.2248,1.2256,1.2257,1.2273,1.2277,1.2279,1.2286,1.2289,1.2292,1.23,1.23,1.2287,1.2284,1.2283,1.2281,1.2304,0,0,0,0,0,1.2175,1.218,1.2199,1.2198,1.2203,1.2219,1.2223,1.2234,1.2245,1.2249,1.226,1.227,1.2277,1.2281,1.2288,1.2288,1.2293,1.2287,1.2286,1.2284,1.2283,1.2286,1.2284,1.2302,1.2302,1.2302,0,0,1.2164,1.2176,1.2178,1.2193,1.2202,1.2208,1.2223,1.2227,1.2232,1.2249,1.2254,1.2263,1.2275,1.2278,1.228,1.2284,1.228,1.2283,1.2282,1.2282,1.2285,1.2283,1.2282,1.2302,1.2302,1.2302,0,0,1.2147,1.2157,1.2158,1.2167,1.2182,1.2194,1.2194,1.2211,1.2218,1.2223,1.2238,1.2243,1.2254,1.2263,1.2269,1.226,1.2269,1.2261,1.2251,1.2254,1.2252,1.2251,1.2249,1.2248,1.2261,1.2261,1.2261,0,1.2131,1.214,1.2157,1.2162,1.2168,1.2186,1.2188,1.2197,1.2212,1.2216,1.2222,1.2238,1.2248,1.2254,1.2252,1.2256,1.2257,1.2259,1.2251,1.225,1.2249,1.2247,1.2246,1.226,1.226,1.226,1.226,0,1.2121,1.2128,1.2127,1.2143,1.215,1.2153,1.2171,1.2175,1.2186,1.2197,1.2204,1.2216,1.2227,1.223,1.2239,1.2238,1.224,1.2248,1.2257,1.2247,1.2245,1.2244,1.2258,1.2259,1.2259,1.2259,0,0,1.2087,1.2116,1.2115,1.2124,1.2143,1.2148,1.2153,1.2165,1.2169,1.218,1.2185,1.2196,1.2204,1.2211,1.2222,1.2224,1.2218,1.2232,1.2233,1.223,1.2219,1.2213,1.2212,1.2225,1.2225,1.2225,1.2218,0,1.2074,1.2084,1.2101,1.2106,1.2113,1.2132,1.2136,1.2148,1.216,1.2167,1.218,1.2188,1.2197,1.2202,1.2205,1.2218,1.2216,1.2218,1.223,1.223,1.2226,1.2211,1.2204,1.2197,1.2218,1.2218,1.2217,0,1.2059,1.2071,1.2077,1.2098,1.2102,1.2105,1.2119,1.2126,1.2141,1.215,1.2159,1.2172,1.2179,1.2187,1.2198,1.2199,1.2205,1.2212,1.2213,1.2214,1.2223,1.2212,1.2195,1.2195,1.2216,1.2217,1.2217,0,1.2036,1.2053,1.206,1.2067,1.2091,1.2093,1.2103,1.2119,1.2126,1.2138,1.2143,1.2155,1.2162,1.2172,1.2188,1.2192,1.2197,1.2207,1.2205,1.2204,1.2204,1.2204,1.2188,1.2208,1.2208,1.2208,1.2208,0,1.202,1.2023,1.205,1.2054,1.2059,1.2078,1.2082,1.2094,1.2108,1.2115,1.2132,1.2138,1.2159,1.2168,1.218,1.2188,1.2191,1.2198,1.2201,1.2197,1.2196,1.22,1.2201,1.2207,1.2207,1.2207,1.2207,0,1.1993,1.2012,1.202,1.2043,1.2049,1.2052,1.2072,1.2077,1.209,1.2099,1.2102,1.2123,1.2135,1.2152,1.2168,1.2177,1.2183,1.2188,1.2178,1.218,1.2178,1.2178,1.2165,1.2164,1.2183,1.2183,1.2183,0,1.1982,1.1985,1.2009,1.2016,1.2026,1.2036,1.2044,1.2064,1.2072,1.2091,1.2094,1.2107,1.2119,1.2137,1.2153,1.2166,1.2172,1.2167,1.2174,1.217,1.2173,1.2173,1.2174,1.2165,1.2164,1.2164,1.2164,0,1.196,1.1969,1.1981,1.1996,1.2006,1.2019,1.2032,1.2036,1.2059,1.2067,1.208,1.209,1.2108,1.2121,1.2137,1.2148,1.216,1.2162,1.2162,1.2157,1.2152,1.2156,1.2174,1.2162,1.2162,1.2162,1.2162,1.2162,1.1941,1.1946,1.1965,1.1977,1.199,1.2003,1.201,1.2025,1.2036,1.2053,1.2064,1.2077,1.2094,1.2117,1.2128,1.2138,1.2143,1.2143,1.2144,1.2143,1.2142,1.2151,1.2141,1.2141,1.2141,1.2141,1.2141,0,1.1921,1.1935,1.1946,1.1966,1.1976,1.1988,1.2005,1.2013,1.2024,1.2039,1.2051,1.2067,1.2081,1.21,1.2115,1.212,1.2126,1.2123,1.2123,1.2126,1.2136,1.2135,1.2118,1.2118,1.2118,1.2118,1.2118,1.2118,1.1911,1.1921,1.1933,1.1949,1.1963,1.1976,1.1985,1.1997,1.201,1.2028,1.204,1.2052,1.2069,1.2087,1.21,1.2105,1.2111,1.2106,1.2113,1.2123,1.2125,1.2127,1.2125,1.2107,1.2107,1.2102,1.2102,1.2102]}]]